Weather History for Ainsworth, NE

Change the Weather History Date:

Thursday, October 25, 2012

  Actual Average Record
Temperature  
Mean Temperature 31 °F -  
Max Temperature 32 °F 54 °F 75 °F (1998)
Min Temperature 30 °F 33 °F 17 °F (1997)
Degree Days  
Heating Degree Days 34    
Moisture  
Dew Point 26 °F    
Average Humidity 83    
Maximum Humidity 100    
Minimum Humidity 71    
Precipitation  
Precipitation 0.01 in - - ()
Sea Level Pressure  
Sea Level Pressure 30.17 in    
Wind  
Wind Speed 18 mph (NW)    
Max Wind Speed 22 mph    
Max Gust Speed 28 mph    
Visibility 8 miles    
Events Snow    
Averages and records for this station are not official NWS values.
T = Trace of Precipitation, MM = Missing Value Source: NWS Daily Summary

Daily Weather History Graph

Daily Weather History Graph

Search for Another Location

Airport:

Trip Planner

Search our weather history database for the weather conditions in past years. The results will help you decide how hot, cold, wet, or windy it might be!

Date:

Astronomy

Oct. 25, 2012 Rise Set
Actual Time 8:05 AM CDT 6:41 PM CDT
Civil Twilight 7:36 AM CDT 7:10 PM CDT
Nautical Twilight 7:03 AM CDT 7:43 PM CDT
Astronomical Twilight 6:31 AM CDT 8:16 PM CDT
Moon 4:32 PM CDT (10/25) 3:59 AM CDT (10/25)
Length of Visible Light 11h 33m
Length of Day
10h 35m
Waxing Gibbous, 84% of the Moon is Illuminated
Oct 25
Waxing Gibbous
Oct 29
Full
Nov 6
Last Quarter
Nov 13
New
Nov 20
First Quarter

Hourly Weather History & Observations

Time (CDT) Temp. Windchill Dew Point Humidity Pressure Visibility Wind Dir Wind Speed Gust Speed Precip Events Conditions
12:15 AM 32.0 °F 20.1 °F 31.8 °F 99% 29.98 in 1.0 mi North 19.6 mph - N/A Snow Light Snow
12:35 AM 32.0 °F 19.8 °F 31.6 °F 99% 29.96 in 1.2 mi North 20.7 mph - N/A Snow Light Snow
12:55 AM 32.0 °F 19.5 °F 31.5 °F 98% 29.97 in 0.8 mi North 21.9 mph 26.5 mph N/A Snow Snow
1:15 AM 32.0 °F 20.8 °F 31.5 °F 98% 29.97 in 1.0 mi NNW 17.3 mph - N/A Snow Snow
1:35 AM 32.0 °F 19.8 °F 31.5 °F 98% 29.97 in 1.0 mi NNW 20.7 mph - N/A Snow Snow
1:55 AM 32.0 °F 20.5 °F 31.1 °F 96% 29.98 in 0.8 mi NNW 18.4 mph - N/A Snow Snow
2:15 AM 32.0 °F 20.1 °F 32.0 °F 100% 29.99 in 1.2 mi NNW 19.6 mph 23.0 mph N/A Snow Light Snow
2:35 AM 32.0 °F 19.8 °F 31.1 °F 96% 30.01 in 1.5 mi NNW 20.7 mph 25.3 mph N/A Snow Light Snow
2:55 AM 32.0 °F 21.2 °F 31.1 °F 96% 30.01 in 1.5 mi NNW 16.1 mph - N/A Snow Light Snow
3:15 AM 31.6 °F 20.0 °F 30.7 °F 96% 30.01 in 0.8 mi NNW 18.4 mph 24.2 mph N/A Snow Snow
3:35 AM 31.6 °F 19.7 °F 30.7 °F 96% 30.02 in 1.0 mi NNW 19.6 mph 25.3 mph N/A Snow Light Snow
3:55 AM 31.5 °F 20.5 °F 30.2 °F 95% 30.03 in 1.2 mi NNW 16.1 mph 23.0 mph N/A Snow Light Snow
4:15 AM 31.5 °F 19.4 °F 30.2 °F 95% 30.04 in 1.2 mi NNW 19.6 mph 25.3 mph N/A Snow Light Snow
4:35 AM 31.1 °F 19.3 °F 29.8 °F 95% 30.05 in 3.0 mi NNW 18.4 mph - N/A Snow Light Snow
4:55 AM 31.5 °F 20.9 °F 29.3 °F 92% 30.05 in 4.0 mi NNW 15.0 mph 21.9 mph N/A Snow Light Snow
5:15 AM 31.8 °F 21.0 °F 28.9 °F 89% 30.06 in 10.0 mi NNW 16.1 mph - N/A Snow Light Snow
5:35 AM 31.8 °F 21.4 °F 28.4 °F 87% 30.07 in 10.0 mi NNW 15.0 mph - N/A   Overcast
5:55 AM 31.6 °F 20.7 °F 28.6 °F 88% 30.07 in 10.0 mi NNW 16.1 mph - N/A   Overcast
6:15 AM 32.0 °F 21.2 °F 28.4 °F 87% 30.08 in 10.0 mi NNW 16.1 mph 20.7 mph N/A   Overcast
6:35 AM 31.5 °F 20.1 °F 27.9 °F 87% 30.08 in 10.0 mi NNW 17.3 mph - N/A   Overcast
6:55 AM 31.1 °F 20.5 °F 27.9 °F 88% 30.08 in 10.0 mi NNW 15.0 mph 21.9 mph N/A   Overcast
7:15 AM 31.1 °F 20.5 °F 27.5 °F 87% 30.09 in 10.0 mi NNW 15.0 mph 20.7 mph N/A   Overcast
7:35 AM 30.9 °F 20.2 °F 27.1 °F 86% 30.09 in 10.0 mi NW 15.0 mph 23.0 mph N/A   Overcast
7:55 AM 30.7 °F 19.6 °F 26.6 °F 85% 30.10 in 10.0 mi NNW 16.1 mph 21.9 mph N/A   Overcast
8:15 AM 30.2 °F 19.3 °F 26.6 °F 86% 30.11 in 10.0 mi NW 15.0 mph - N/A   Overcast
8:35 AM 30.2 °F 20.8 °F 26.6 °F 86% 30.12 in 10.0 mi NW 11.5 mph 17.3 mph N/A   Overcast
8:55 AM 30.7 °F 20.0 °F 26.4 °F 84% 30.14 in 10.0 mi NW 15.0 mph 19.6 mph 0.01 in   Overcast
9:15 AM 30.7 °F 20.0 °F 26.1 °F 83% 30.14 in 10.0 mi NW 15.0 mph - N/A   Overcast
9:35 AM 30.7 °F 19.6 °F 26.1 °F 83% 30.14 in 10.0 mi NW 16.1 mph 21.9 mph N/A   Overcast
9:55 AM 30.9 °F 20.7 °F 26.1 °F 82% 30.15 in 10.0 mi NW 13.8 mph 23.0 mph N/A   Mostly Cloudy
10:15 AM 31.1 °F 19.7 °F 26.1 °F 82% 30.16 in 10.0 mi NW 17.3 mph - N/A   Scattered Clouds
10:35 AM 32.0 °F 21.6 °F 26.6 °F 80% 30.16 in 10.0 mi NW 15.0 mph 21.9 mph N/A   Scattered Clouds
10:55 AM 32.0 °F 21.6 °F 26.6 °F 80% 30.17 in 10.0 mi NW 15.0 mph 23.0 mph N/A   Mostly Cloudy
11:15 AM 31.5 °F 18.8 °F 25.5 °F 79% 30.17 in 10.0 mi NW 21.9 mph 27.6 mph N/A   Overcast
11:35 AM 32.0 °F 20.1 °F 26.6 °F 80% 30.17 in 10.0 mi NW 19.6 mph 25.3 mph N/A   Overcast
11:55 AM 31.6 °F 20.0 °F 25.7 °F 79% 30.17 in 10.0 mi NNW 18.4 mph 24.2 mph N/A   Overcast
12:15 PM 30.9 °F 18.4 °F 25.3 °F 80% 30.18 in 10.0 mi NW 20.7 mph 26.5 mph N/A   Overcast
12:35 PM 30.6 °F 17.9 °F 25.3 °F 81% 30.18 in 10.0 mi NW 20.7 mph 24.2 mph N/A   Overcast
12:55 PM 30.9 °F 20.7 °F 25.7 °F 81% 30.18 in 10.0 mi NW 13.8 mph 27.6 mph N/A   Overcast
1:15 PM 30.6 °F 17.9 °F 25.0 °F 80% 30.19 in 10.0 mi NNW 20.7 mph 27.6 mph N/A   Overcast
1:35 PM 30.2 °F 17.8 °F 24.8 °F 80% 30.19 in 10.0 mi NW 19.6 mph 27.6 mph N/A   Overcast
1:55 PM 30.7 °F 19.2 °F 24.6 °F 78% 30.19 in 10.0 mi NNW 17.3 mph 25.3 mph N/A   Overcast
2:15 PM 30.6 °F 17.9 °F 24.8 °F 79% 30.20 in 10.0 mi NW 20.7 mph 24.2 mph N/A   Overcast
2:35 PM 30.7 °F 18.5 °F 24.3 °F 77% 30.20 in 10.0 mi NW 19.6 mph 25.3 mph N/A   Overcast
2:55 PM 30.9 °F 19.4 °F 24.3 °F 76% 30.21 in 10.0 mi NW 17.3 mph 27.6 mph N/A   Overcast
3:15 PM 31.1 °F 19.3 °F 23.9 °F 75% 30.21 in 10.0 mi NW 18.4 mph 25.3 mph N/A   Overcast
3:35 PM 31.1 °F 18.9 °F 23.7 °F 74% 30.22 in 10.0 mi NW 19.6 mph 25.3 mph N/A   Overcast
3:55 PM 31.5 °F 19.1 °F 23.9 °F 74% 30.22 in 10.0 mi NW 20.7 mph 25.3 mph N/A   Overcast
4:15 PM 32.0 °F 20.8 °F 24.8 °F 75% 30.23 in 10.0 mi NW 17.3 mph - N/A   Overcast
4:35 PM 31.5 °F 21.4 °F 23.9 °F 74% 30.24 in 10.0 mi NW 13.8 mph 19.6 mph N/A   Overcast
4:55 PM 31.8 °F 21.0 °F 23.9 °F 73% 30.24 in 10.0 mi NW 16.1 mph 20.7 mph N/A   Overcast
5:15 PM 31.5 °F 19.8 °F 23.0 °F 71% 30.25 in 10.0 mi NW 18.4 mph 26.5 mph N/A   Overcast
5:35 PM 31.5 °F 20.9 °F 23.9 °F 74% 30.26 in 10.0 mi NNW 15.0 mph 18.4 mph N/A   Overcast
5:55 PM 31.1 °F 20.1 °F 24.3 °F 76% 30.26 in 10.0 mi NW 16.1 mph 20.7 mph N/A   Overcast
6:15 PM 30.9 °F 20.7 °F 23.9 °F 75% 30.27 in 10.0 mi NW 13.8 mph 21.9 mph N/A   Overcast
6:35 PM 30.9 °F 20.2 °F 23.7 °F 75% 30.28 in 10.0 mi NW 15.0 mph 18.4 mph N/A   Overcast
6:55 PM 30.9 °F 20.2 °F 23.9 °F 75% 30.29 in 10.0 mi NW 15.0 mph 19.6 mph N/A   Overcast
7:15 PM 30.9 °F 22.2 °F 24.6 °F 77% 30.29 in 10.0 mi NW 10.4 mph - N/A   Overcast
7:35 PM 30.9 °F 18.7 °F 23.9 °F 75% 30.30 in 10.0 mi NW 19.6 mph - N/A   Overcast
7:55 PM 30.7 °F 21.4 °F 23.9 °F 76% 30.31 in 10.0 mi NW 11.5 mph 18.4 mph N/A   Overcast
8:15 PM 30.2 °F 19.8 °F 23.2 °F 75% 30.32 in 10.0 mi NW 13.8 mph - N/A   Overcast
8:35 PM 30.2 °F 19.8 °F 23.4 °F 76% 30.32 in 10.0 mi NW 13.8 mph - N/A   Overcast
8:55 PM 30.2 °F 19.8 °F 23.2 °F 75% 30.32 in 10.0 mi NW 13.8 mph - N/A   Overcast
9:15 PM 30.2 °F 19.8 °F 23.5 °F 76% 30.32 in 10.0 mi NW 13.8 mph - N/A   Overcast
9:35 PM 30.2 °F 21.3 °F 23.9 °F 77% 30.33 in 10.0 mi NW 10.4 mph - N/A   Overcast
9:55 PM 30.2 °F 18.9 °F 23.2 °F 75% 30.34 in 10.0 mi NNW 16.1 mph 19.6 mph N/A   Overcast
10:15 PM 30.2 °F 18.5 °F 23.0 °F 75% 30.34 in 10.0 mi NNW 17.3 mph - N/A   Overcast
10:35 PM 30.2 °F 21.3 °F 23.0 °F 75% 30.35 in 10.0 mi NW 10.4 mph - N/A   Overcast
10:55 PM 30.2 °F 19.8 °F 23.0 °F 75% 30.35 in 10.0 mi NW 13.8 mph - N/A   Overcast
11:15 PM 30.0 °F 19.1 °F 23.0 °F 75% 30.34 in 10.0 mi NW 15.0 mph 19.6 mph N/A   Overcast
11:35 PM 30.2 °F 20.8 °F 23.0 °F 75% 30.34 in 10.0 mi NW 11.5 mph - N/A   Overcast
11:55 PM 30.2 °F 18.9 °F 23.0 °F 75% 30.34 in 10.0 mi NNW 16.1 mph 20.7 mph N/A   Overcast